Weather History for MCMWTC BRIDGEPORT, CA, CA

Change the Weather History Date:

Wednesday, May 7, 2014

  Actual Average (KTVL) Record (KTVL)
Temperature  
Mean Temperature 40 °F 46 °F  
Max Temperature 57 °F 61 °F 75 °F (1992)
Min Temperature 24 °F 31 °F 15 °F (1977)
Degree Days  
Heating Degree Days 26 19  
Month to date heating degree days 141  
Since 1 July heating degree days 7031  
Cooling Degree Days 0 0  
Month to date cooling degree days 0  
Year to date cooling degree days 0  
Moisture  
Dew Point 22 °F    
Average Humidity 51    
Maximum Humidity 78    
Minimum Humidity 24    
Precipitation  
Precipitation 0.00 in - 0.71 in (1979)
Month to date precipitation  
Year to date precipitation  
Sea Level Pressure  
Sea Level Pressure 29.86 in    
Wind  
Wind Speed 4 mph (WSW)    
Max Wind Speed 17 mph    
Max Gust Speed 28 mph    
T = Trace of Precipitation, MM = Missing Value Source: NWS Daily Summary

Daily Weather History Graph

Daily Weather History Graph

Search for Another Location

Airport:

Trip Planner

Search our weather history database for the weather conditions in past years. The results will help you decide how hot, cold, wet, or windy it might be!

Date:

Astronomy

May. 07, 2014 Rise Set
Actual Time 5:54 AM PDT 7:55 PM PDT
Civil Twilight 5:25 AM PDT 8:24 PM PDT
Nautical Twilight 4:50 AM PDT 8:59 PM PDT
Astronomical Twilight 4:11 AM PDT 9:38 PM PDT
Moon 1:10 PM PDT (5/7) 1:50 AM PDT (5/7)
Length of Visible Light 14h 58m
Length of Day
14h 00m
First Quarter, 56% of the Moon is Illuminated
May 7
First Quarter
May 14
Full
May 21
Last Quarter
May 28
New
Jun 5
First Quarter

Hourly Weather History & Observations

Time (PDT) Temp. Windchill Dew Point Humidity Pressure Visibility Wind Dir Wind Speed Gust Speed Precip Events Conditions
12:52 AM 30.0 °F - 21.0 °F 69% 29.88 in - Calm Calm - N/A   Clear
1:52 AM 28.0 °F - 19.9 °F 72% 29.88 in - Calm Calm - N/A   Clear
2:52 AM 27.0 °F - 19.9 °F 75% 29.89 in - Calm Calm - N/A   Overcast
3:52 AM 27.0 °F - 19.9 °F 75% 29.86 in - Calm Calm - N/A   Scattered Clouds
4:52 AM 25.0 °F - 19.0 °F 78% 29.88 in - Calm Calm - N/A   Clear
5:52 AM 24.1 °F - 18.0 °F 77% 29.88 in - Calm Calm - N/A   Mostly Cloudy
6:52 AM 26.1 °F - 19.9 °F 78% 29.88 in - Calm Calm - N/A   Partly Cloudy
7:52 AM 30.0 °F - 23.0 °F 75% 29.88 in - Calm Calm - N/A   Clear
8:52 AM 41.0 °F 39.0 °F 21.9 °F 47% 29.84 in - ESE 3.5 mph - N/A   Mostly Cloudy
9:52 AM 48.0 °F - 17.1 °F 29% 29.79 in - West 8.1 mph - N/A   Partly Cloudy
10:52 AM 51.1 °F - 15.1 °F 24% 29.79 in - Variable 5.8 mph 23.0 mph N/A   Clear
11:52 AM 53.1 °F - 18.0 °F 25% 29.80 in - North - - N/A   Mostly Cloudy
12:52 PM 54.0 °F - 19.9 °F 26% 29.82 in - North - - N/A   Mostly Cloudy
1:52 PM 55.0 °F - 21.0 °F 27% 29.83 in - SSW 13.8 mph 25.3 mph N/A   Partly Cloudy
2:52 PM 55.0 °F - 21.9 °F 28% 29.84 in - WSW 10.4 mph 27.6 mph N/A   Partly Cloudy
3:52 PM 54.0 °F - 24.1 °F 31% 29.84 in - SW 17.3 mph 26.5 mph N/A   Clear
4:52 PM 54.0 °F - 26.1 °F 34% 29.87 in - SW 15.0 mph 26.5 mph N/A   Partly Cloudy
5:52 PM 52.0 °F - 26.1 °F 37% 29.88 in - SW 16.1 mph 20.7 mph N/A   Clear
6:52 PM 48.0 °F - 25.0 °F 41% 29.90 in - West 8.1 mph - N/A   Clear
7:52 PM 46.0 °F 41.4 °F 25.0 °F 44% 29.90 in - WNW 9.2 mph - N/A   Clear
8:52 PM 43.0 °F 41.3 °F 26.1 °F 51% 29.90 in - West 3.5 mph - N/A   Mostly Cloudy
9:52 PM 39.9 °F 36.7 °F 25.0 °F 55% 29.90 in - Variable 4.6 mph - N/A   Clear
10:52 PM 37.0 °F 32.4 °F 24.1 °F 59% 29.91 in - NNW 5.8 mph - N/A   Clear
11:52 PM 35.1 °F 32.2 °F 24.1 °F 64% 29.92 in - Variable 3.5 mph - N/A   Clear